CST,Max TemperatureF,Mean TemperatureF,Min TemperatureF,Max Dew PointF,MeanDew PointF,Min DewpointF,Max Humidity, Mean Humidity, Min Humidity, Max Sea Level PressureIn, Mean Sea Level PressureIn, Min Sea Level PressureIn, Max VisibilityMiles, Mean VisibilityMiles, Min VisibilityMiles, Max Wind SpeedMPH, Mean Wind SpeedMPH, Max Gust SpeedMPH,PrecipitationIn, CloudCover, Events, WindDirDegrees
2013-1-1,34,29,24,28,23,20,93,78,65,30.34,30.27,30.12,10,10,10,17,11,23,0.00,5,,345
2013-1-2,45,32,19,26,23,18,95,76,40,30.38,30.32,30.25,10,10,8,13,5,,0.00,0,,295
2013-1-3,45,35,25,25,23,19,92,69,35,30.51,30.45,30.38,10,10,10,12,8,,0.00,0,,346
2013-1-4,44,34,25,32,28,23,92,75,48,30.50,30.41,30.30,10,10,10,15,5,,0.00,6,,196
2013-1-5,53,43,33,32,27,17,88,64,25,30.37,30.25,30.16,10,10,10,16,10,22,0.00,3,,240
2013-1-6,54,39,24,28,25,22,89,63,30,30.46,30.38,30.32,10,10,10,13,6,,0.00,0,,231
2013-1-7,50,36,22,28,24,18,88,69,38,30.31,30.21,30.08,10,10,10,14,4,,0.08,1,,135
2013-1-8,51,39,27,43,36,26,100,78,60,30.15,30.06,30.01,10,10,0,10,5,,0.00,6,,130
2013-1-9,46,43,40,46,42,34,100,93,70,30.29,30.15,30.04,10,7,2,29,16,37,0.30,7,Rain,28
2013-1-10,52,46,41,50,48,42,100,99,87,30.04,29.91,29.83,10,7,1,18,12,,0.15,7,Rain,21
2013-1-11,66,52,37,51,44,30,100,80,44,29.83,29.74,29.65,10,10,9,20,9,25,0.00,2,,169
2013-1-12,47,36,26,32,24,15,77,57,36,30.12,29.93,29.83,10,10,10,25,15,36,0.00,4,Rain,4
2013-1-13,34,26,17,20,13,10,83,62,38,30.38,30.27,30.13,10,10,10,18,11,23,0.00,2,,7
2013-1-14,36,26,15,17,13,9,87,62,32,30.43,30.36,30.29,10,10,10,15,8,,0.00,5,,33
2013-1-15,38,30,22,17,15,11,71,55,34,30.32,30.29,30.24,10,10,10,13,8,,0.00,5,,6
2013-1-16,52,34,15,31,22,13,93,62,33,30.27,30.23,30.15,10,10,10,13,4,,0.00,1,,282
2013-1-17,56,44,31,32,29,26,85,63,37,30.54,30.45,30.30,10,10,10,14,8,,0.00,0,,360
2013-1-18,61,43,25,33,30,24,96,69,33,30.49,30.34,30.17,10,10,10,18,5,25,0.00,0,,160
2013-1-19,61,44,27,36,32,26,94,72,38,30.23,30.16,30.12,10,10,10,7,4,,0.00,0,,135
2013-1-20,63,46,29,36,31,25,86,63,32,30.23,30.18,30.08,10,10,10,22,6,,0.00,0,,48
2013-1-21,45,34,24,28,16,9,81,51,32,30.44,30.32,30.23,10,10,10,25,14,34,0.00,0,,29
2013-1-22,62,42,21,38,28,17,91,66,36,30.29,30.22,30.13,10,10,10,15,6,,0.00,0,,137
2013-1-23,66,47,28,48,40,29,99,82,43,30.23,30.15,30.08,10,10,7,12,5,,0.00,0,,81
2013-1-24,46,38,31,46,34,28,100,83,65,30.25,30.15,30.11,10,10,9,23,14,23,0.00,3,,25
2013-1-25,52,40,27,31,28,25,90,68,42,30.27,30.20,30.12,10,10,10,15,10,,0.00,0,,27
2013-1-26,55,40,25,46,34,23,96,75,51,30.22,30.14,30.00,10,10,9,16,7,,0.00,1,,109
2013-1-27,76,62,48,56,51,46,100,92,45,30.00,29.92,29.75,10,6,1,21,13,26,0.00,6,,151
2013-1-28,79,60,40,63,52,40,100,77,41,29.90,29.80,29.69,10,9,2,26,9,32,0.00,2,,179
2013-1-29,66,52,39,63,44,30,100,69,31,29.72,29.61,29.49,10,10,7,31,11,45,0.08,5,Rain-Thunderstorm,285
2013-1-30,50,39,28,32,24,11,75,58,21,30.11,29.93,29.75,10,10,10,25,15,31,0.00,4,,310
2013-1-31,63,42,21,30,22,14,83,53,22,30.38,30.15,30.06,10,10,10,25,6,33,0.00,0,,31